Key West NAF, FL

8:05 PM EST on November 20, 2019 (GMT -0500)
Key West Naval Air Station

Weather History for KNQX - October, 2019

Change the Weather History Date:

Sunday, October 20, 2019

  Actual Average Record
Temperature  
Mean Temperature 86 °F -  
Max Temperature 91 °F 83 °F 91 °F (2019)
Min Temperature 82 °F 75 °F 64 °F (1997)
Cooling Degree Days 20    
Growing Degree Days 36 (Base 50)    
Moisture  
Dew Point 77 °F    
Average Humidity 76    
Maximum Humidity 82    
Minimum Humidity 70    
Precipitation  
Precipitation 0.00 in - - ()
Sea Level Pressure  
Sea Level Pressure 29.93 in    
Wind  
Wind Speed 13 mph (South)    
Max Wind Speed 18 mph    
Max Gust Speed -    
Visibility 10 miles    
Events      
Averages and records for this station are not official NWS values.
T = Trace of Precipitation, MM = Missing Value Source: NWS Daily Summary

Daily Weather History Graph

Daily Weather History Graph

Search for Another Location

Airport or City:

Astronomy

Oct. 20, 2019 Rise Set
Actual Time 7:26 AM EDT 6:55 PM EDT
Civil Twilight 7:03 AM EDT 7:18 PM EDT
Nautical Twilight 6:37 AM EDT 7:45 PM EDT
Astronomical Twilight 6:10 AM EDT 8:11 PM EDT
Moon No Moon Rise 1:29 PM EDT (10/20)
Length of Visible Light 12h 14m
Length of Day
11h 28m
Waning Gibbous, 59% of the Moon is Illuminated
Oct 20
Waning Gibbous
Oct 21
Last Quarter
Oct 27
New
Nov 4
First Quarter
Nov 12
Full

Hourly Weather History & Observations

Time (EDT) Temp. Heat Index Dew Point Humidity Pressure Visibility Wind Dir Wind Speed Gust Speed Precip Events Conditions
12:53 AM 84.9 °F 95.3 °F 77.0 °F 77% 29.90 in 10.0 mi South 13.8 mph - N/A   Mostly Cloudy
1:53 AM 84.9 °F 95.3 °F 77.0 °F 77% 29.89 in 10.0 mi South 18.4 mph - N/A   Clear
2:53 AM 84.9 °F 95.3 °F 77.0 °F 77% 29.88 in 10.0 mi South 15.0 mph - N/A   Scattered Clouds
3:53 AM 84.0 °F 93.7 °F 77.0 °F 79% 29.87 in 10.0 mi South 15.0 mph - N/A   Scattered Clouds
4:24 AM 84.0 °F 93.7 °F 77.0 °F 79% 29.88 in 10.0 mi South 13.8 mph - N/A   Mostly Cloudy
4:43 AM 84.0 °F 93.7 °F 77.0 °F 79% 29.88 in 10.0 mi South 13.8 mph - N/A   Scattered Clouds
4:53 AM 84.0 °F 93.7 °F 77.0 °F 79% 29.88 in 10.0 mi South 15.0 mph - N/A   Mostly Cloudy
5:26 AM 84.0 °F 93.7 °F 77.0 °F 79% 29.89 in 10.0 mi South 12.7 mph - N/A   Scattered Clouds
5:34 AM 84.0 °F 93.7 °F 77.0 °F 79% 29.89 in 10.0 mi South 15.0 mph - N/A   Mostly Cloudy
5:53 AM 84.0 °F 93.7 °F 77.0 °F 79% 29.89 in 10.0 mi South 13.8 mph - N/A   Mostly Cloudy
6:02 AM 84.0 °F 93.7 °F 77.0 °F 79% 29.90 in 10.0 mi South 12.7 mph - N/A   Mostly Cloudy
6:53 AM 84.0 °F 93.7 °F 77.0 °F 79% 29.92 in 10.0 mi South 15.0 mph - N/A   Mostly Cloudy
7:53 AM 84.0 °F 92.6 °F 75.9 °F 76% 29.92 in 10.0 mi South 16.1 mph - N/A   Mostly Cloudy
8:53 AM 86.0 °F 96.9 °F 77.0 °F 74% 29.95 in 10.0 mi SSW 15.0 mph - N/A   Mostly Cloudy
9:53 AM 87.1 °F 98.8 °F 77.0 °F 72% 29.96 in 10.0 mi South 13.8 mph - N/A   Mostly Cloudy
10:53 AM 87.1 °F 98.8 °F 77.0 °F 72% 29.97 in 10.0 mi SSW 12.7 mph - N/A   Mostly Cloudy
11:53 AM 88.0 °F 101.3 °F 78.1 °F 72% 29.97 in 10.0 mi SSW 13.8 mph - N/A   Mostly Cloudy
12:53 PM 89.1 °F 103.2 °F 78.1 °F 70% 29.97 in 10.0 mi SSW 11.5 mph - N/A   Mostly Cloudy
1:53 PM 89.1 °F 103.2 °F 78.1 °F 70% 29.94 in 10.0 mi SSW 11.5 mph - N/A   Mostly Cloudy
2:53 PM 89.1 °F 103.2 °F 78.1 °F 70% 29.93 in 10.0 mi South 9.2 mph - N/A   Mostly Cloudy
3:53 PM 88.0 °F 100.2 °F 77.0 °F 70% 29.92 in 10.0 mi SSW 9.2 mph - N/A   Mostly Cloudy
4:53 PM 88.0 °F 100.2 °F 77.0 °F 70% 29.92 in 10.0 mi South 8.1 mph - N/A   Mostly Cloudy
5:53 PM 87.1 °F 98.8 °F 77.0 °F 72% 29.94 in 10.0 mi South 4.6 mph - N/A   Mostly Cloudy
6:53 PM 84.9 °F 94.1 °F 75.9 °F 74% 29.93 in 10.0 mi SE 3.5 mph - N/A   Scattered Clouds
7:53 PM 84.0 °F 92.6 °F 75.9 °F 76% 29.95 in 10.0 mi Calm Calm - N/A   Scattered Clouds
8:53 PM 82.9 °F 91.8 °F 77.0 °F 82% 29.96 in 10.0 mi SE 4.6 mph - N/A   Scattered Clouds
9:53 PM 82.9 °F 91.8 °F 77.0 °F 82% 29.97 in 10.0 mi SE 5.8 mph - N/A   Scattered Clouds
10:53 PM 82.0 °F 89.4 °F 75.9 °F 82% 29.99 in 10.0 mi SE 4.6 mph - N/A   Clear
11:53 PM 82.9 °F 90.8 °F 75.9 °F 79% 29.98 in 10.0 mi SE 6.9 mph - N/A   Clear